FW0639 Weather Reports


time (UTC)temp
F
wind
direction
speed
knots
gust
knots
rain 1hr
in
rain 24hr
in
rain mn
in
humidity
%
barometer
mb
20240418175910 33 269 3.5 13.9 0.00 0.04 0.03 56 1032.3
20240418174932 33 246 3.5 11.3 0.00 0.04 0.03 55 1032.3
20240418173940 33 224 3.5 11.3 0.00 0.04 0.03 55 1032.5
20240418172952 33 269 2.6 12.2 0.05 0.04 0.03 56 1032.4
20240418170753 33 207 3.5 11.3 0.00 0.02 0.01 55 1032.5
20240418164542 31 280 1.7 11.3 0.00 0.02 0.01 58 1032.6
20240418163517 31 233 2.6 12.2 0.00 0.02 0.01 60 1032.6
20240418162539 30 210 3.5 12.2 0.00 0.02 0.01 63 1032.5
20240418161529 31 224 2.6 9.6 0.00 0.02 0.01 64 1032.7
20240418160457 30 217 2.6 7.8 0.00 0.01 0.00 66 1032.7
20240418155445 29 240 1.7 7.8 0.00 0.01 0.00 67 1032.7
20240418154503 28 235 2.6 8.7 0.00 0.01 0.00 68 1032.7
20240418153518 27 234 2.6 9.6 0.00 0.01 0.00 71 1032.7
20240418151417 25 232 1.7 7.8 0.00 0.01 0.00 72 1032.8
20240418150424 25 210 2.6 7.8 0.00 0.01 0.00 72 1032.9
20240418145354 25 211 2.6 7.8 0.00 0.01 0.00 72 1032.9
20240418144413 24 208 3.5 7.8 0.00 0.01 0.00 72 1032.9
20240418143429 24 212 3.5 7.8 0.00 0.01 0.00 72 1032.9
20240418142411 24 204 4.3 8.7 0.00 0.01 0.00 73 1032.9
20240418141354 23 221 4.3 7.8 0.00 0.01 0.00 73 1032.9
20240418140354 23 223 2.6 9.6 0.00 0.01 0.00 73 1032.9
20240418135324 23 223 3.5 9.6 0.00 0.01 0.00 73 1032.9
20240418134254 22 189 2.6 7.8 0.00 0.01 0.00 74 1032.9
20240418133312 22 208 2.6 6.1 0.00 0.01 0.00 75 1032.8
20240418132324 22 206 2.6 6.1 0.00 0.01 0.00 75 1032.8
20240418131341 21 208 2.6 7.8 0.00 0.01 0.00 75 1032.8
20240418125203 22 201 3.5 8.7 0.00 0.01 0.00 75 1032.6
20240418124147 22 212 3.5 7.8 0.00 0.01 0.00 75 1032.6
20240418123212 22 209 3.5 8.7 0.00 0.01 0.00 75 1032.6
20240418121038 22 195 2.6 7.8 0.00 0.01 0.00 77 1032.3
20240418120049 22 212 1.7 6.1 0.00 0.01 0.00 77 1032.3
20240418113841 22 216 1.7 7.0 0.00 0.01 0.00 78 1032.2
20240418112851 22 223 2.6 7.8 0.00 0.01 0.00 79 1032.2
20240418110703 23 211 2.6 7.8 0.00 0.01 0.00 80 1032.0
20240418105647 23 216 2.6 7.0 0.00 0.01 0.00 81 1031.9
20240418104628 22 211 1.7 7.0 0.00 0.01 0.00 82 1032.0
20240418103617 22 207 1.7 6.1 0.00 0.01 0.00 82 1031.9
20240418102547 23 205 1.7 7.8 0.00 0.01 0.00 82 1031.9
20240418101601 23 215 1.7 8.7 0.00 0.01 0.00 83 1032.0
20240418095419 23 213 1.7 7.0 0.00 0.01 0.00 86 1032.0
20240418094416 23 217 1.7 7.0 0.00 0.01 0.00 87 1031.9
20240418093402 23 211 1.7 7.0 0.00 0.01 0.00 88 1031.9
20240418092400 23 211 0.9 3.5 0.00 0.01 0.00 88 1031.9
20240418091329 24 211 0.9 5.2 0.00 0.01 0.00 88 1031.8
20240418090339 24 211 0.9 6.1 0.00 0.01 0.00 88 1031.8
20240418085354 24 211 1.7 6.1 0.00 0.01 0.00 88 1031.8
20240418083223 24 211 1.7 6.1 0.00 0.01 0.00 88 1031.7
20240418082227 24 211 2.6 8.7 0.00 0.01 0.00 87 1031.7
20240418081214 25 211 3.5 8.7 0.00 0.01 0.00 87 1031.6
20240418080211 25 241 2.6 7.8 0.00 0.01 0.00 87 1031.5
20240418075231 25 195 2.6 9.6 0.00 0.01 0.00 88 1031.4
20240418074229 25 215 2.6 9.6 0.00 0.01 0.00 87 1031.6
20240418073234 26 221 2.6 8.7 0.00 0.01 0.00 88 1031.6
20240418072250 26 239 2.6 8.7 0.00 0.01 0.00 88 1031.6
20240418071225 26 220 2.6 8.7 0.00 0.01 0.00 89 1031.7
20240418070209 26 222 1.7 9.6 0.00 0.01 0.00 89 1031.6
20240418065157 26 219 2.6 9.6 0.00 0.01 0.00 89 1031.8
20240418064138 26 220 2.6 7.8 0.00 0.01 0.00 89 1031.8
20240418063143 26 226 2.6 7.8 0.00 0.01 0.00 90 1031.7
20240418062110 27 222 1.7 7.8 0.00 0.01 0.00 90 1031.8
20240418055949 27 221 2.6 8.7 0.00 0.01 0.01 89 1031.6
20240418055008 27 220 0.9 6.1 0.00 0.01 0.01 90 1031.6
20240418053943 27 219 2.6 6.1 0.00 0.01 0.01 89 1031.5
20240418052954 27 165 1.7 7.0 0.00 0.01 0.01 89 1031.5
20240418051935 27 226 1.7 7.8 0.00 0.01 0.01 89 1031.4
20240418050954 27 221 1.7 7.8 0.00 0.01 0.01 88 1031.3
20240418045944 27 232 1.7 7.8 0.00 0.01 0.01 88 1031.2
20240418045009 27 221 1.7 8.7 0.00 0.01 0.01 87 1031.3
20240418044003 27 213 2.6 8.7 0.00 0.01 0.01 87 1031.4
20240418041830 27 225 1.7 7.8 0.00 0.01 0.01 87 1031.4
20240418040804 27 240 0.9 7.8 0.00 0.01 0.01 88 1031.4
20240418035819 27 245 1.7 7.8 0.00 0.01 0.01 88 1031.2
20240418034803 27 224 1.7 7.8 0.00 0.01 0.01 88 1031.2
20240418033820 28 216 1.7 10.4 0.00 0.01 0.01 88 1031.0
20240418032840 28 265 1.7 10.4 0.00 0.01 0.01 89 1030.8
20240418031838 28 213 1.7 9.6 0.00 0.01 0.01 89 1030.4
20240418030828 29 228 1.7 9.6 0.00 0.01 0.01 89 1030.3
20240418025825 29 203 1.7 7.0 0.00 0.01 0.01 88 1030.1
20240418024807 29 228 2.6 9.6 0.00 0.01 0.01 88 1029.7
20240418022556 28 258 1.7 7.8 0.00 0.01 0.01 88 1029.4
20240418021618 29 234 1.7 7.8 0.00 0.01 0.01 88 1029.2
20240418015422 29 256 0.9 11.3 0.00 0.01 0.01 89 1028.9
20240418014349 29 270 1.7 7.8 0.00 0.01 0.01 87 1028.7
20240418013344 30 220 1.7 9.6 0.00 0.01 0.01 84 1028.6
20240418012341 30 234 2.6 9.6 0.00 0.01 0.01 80 1028.3
20240418011314 30 227 2.6 10.4 0.00 0.01 0.01 79 1028.3
20240418010302 31 246 3.5 11.3 0.00 0.01 0.01 79 1028.3
20240418005325 31 211 4.3 13.9 0.00 0.01 0.01 79 1028.2
20240418004300 30 220 2.6 16.5 0.00 0.01 0.01 80 1028.2
20240418003248 30 215 4.3 16.5 0.00 0.01 0.01 81 1028.2
20240418002236 30 229 3.5 11.3 0.00 0.01 0.01 81 1028.2
20240418001220 30 230 2.6 15.6 0.00 0.01 0.01 82 1028.1
20240418000214 30 211 2.6 15.6 0.00 0.01 0.01 82 1027.9
20240417235209 30 242 2.6 10.4 0.00 0.01 0.01 82 1027.8
20240417234205 30 224 3.5 10.4 0.00 0.01 0.01 81 1027.6
20240417233229 30 236 2.6 7.8 0.00 0.01 0.01 82 1027.4
20240417232156 30 220 2.6 9.6 0.00 0.01 0.01 82 1027.2
20240417231209 30 294 3.5 13.9 0.00 0.01 0.01 81 1027.1
20240417230144 31 269 2.6 13.9 0.00 0.01 0.01 83 1026.8
20240417224026 31 285 2.6 13.0 0.00 0.01 0.01 86 1026.2
20240417223029 31 244 3.5 10.4 0.00 0.01 0.01 86 1025.9
20240417222049 31 263 2.6 9.6 0.00 0.01 0.01 88 1025.8
20240417221017 30 233 2.6 9.6 0.00 0.01 0.01 88 1025.5
20240417220002 30 224 2.6 14.8 0.00 0.01 0.01 88 1025.3
20240417214958 30 239 2.6 14.8 0.00 0.01 0.01 88 1025.2
20240417214011 31 255 4.3 13.0 0.00 0.01 0.01 87 1024.9
20240417213036 31 268 3.5 12.2 0.00 0.01 0.01 85 1024.8
20240417212029 32 246 3.5 12.2 0.00 0.01 0.01 85 1024.6
20240417210958 32 262 4.3 11.3 0.00 0.01 0.01 85 1024.4
20240417204802 33 272 4.3 14.8 0.00 0.01 0.01 84 1024.0
20240417202640 33 254 4.3 13.0 0.00 0.01 0.01 79 1023.8
20240417201651 33 270 3.5 11.3 0.00 0.01 0.01 78 1023.7
20240417200654 32 242 3.5 12.2 0.00 0.00 0.00 77 1023.6
20240417195654 32 232 2.6 12.2 0.00 0.00 0.00 79 1023.3
20240417194647 32 201 2.6 11.3 0.00 0.00 0.00 83 1023.3
20240417193706 32 202 2.6 12.2 0.00 0.00 0.00 84 1023.3
20240417191529 32 240 2.6 11.3 0.00 0.00 0.00 82 1023.0
20240417190515 32 231 3.5 11.3 0.00 0.00 0.00 81 1022.9
20240417185534 31 308 2.6 13.0 0.00 0.00 0.00 79 1022.9
20240417184554 31 303 2.6 13.0 0.00 0.00 0.00 80 1022.9
20240417183532 32 294 3.5 10.4 0.00 0.00 0.00 78 1022.9
20240417182520 32 249 2.6 10.4 0.00 0.00 0.00 77 1022.7
20240417181531 31 230 2.6 5.2 0.00 0.00 0.00 79 1022.8